RH
61 63 59 70 68 71 80 84 87 87 89 93 95 95 97 95 91 90 85 84 85 87 92 94 95 97 94 91 92 90 86 88 86 91 97 97 94 88 82 81 80 75 77
60 58 60 64 73 72 78 84 86 88 89 91 91 94 94 94 91 89 87 86 85 88 88 92 95 97 98 95 89 95 91 91 89 87 94 99 96 92 87 84 78 73 81
64 59 55 65 65 74 73 76 83 88 88 89 87 86 86 87 90 90 90 87 84 87 90 90 92 93 96 98 98 98 97 96 97 88 89 97 94 93 92 84 81 79 84
57 57 60 66 66 71 73 73 72 85 86 88 89 90 94 95 94 91 89 88 83 84 87 88 89 92 93 96 97 97 98 93 95 99 96 85 87 90 98 90 82 77 79
49 57 63 61 65 69 78 75 71 72 78 87 88 93 94 94 91 91 88 88 86 84 86 85 87 90 93 94 96 96 98 98 97 96 99 98 97 91 88 98 96 88 80
40 39 40 46 59 59 56 64 73 73 78 81 82 86 91 92 94 92 93 92 89 90 89 85 85 86 90 93 95 95 95 97 96 96 98 98 98 98 97 97 95 92 80
40 43 42 45 49 55 51 43 52 62 66 74 81 88 90 88 82 91 90 89 87 87 91 90 86 86 85 88 90 92 94 96 97 97 97 97 97 97 97 96 99 98 97
39 45 47 46 47 49 51 46 49 50 48 57 65 69 82 80 72 78 83 87 86 84 82 82 86 78 79 82 86 91 93 94 96 95 95 95 95 95 96 99 97 98 98
42 45 46 45 42 46 48 44 46 46 49 48 52 59 66 74 70 57 57 68 66 52 70 65 76 80 77 74 72 80 87 90 92 95 94 93 92 93 94 94 96 99 98
43 43 44 43 41 40 43 42 38 37 37 39 39 42 51 53 58 61 55 51 51 55 61 60 58 61 61 59 71 72 65 64 74 81 83 86 87 89 91 92 91 94 97
45 42 40 38 37 35 35 39 37 34 34 33 33 35 37 36 39 44 48 51 49 48 50 50 55 57 58 58 59 58 60 61 62 68 68 60 60 66 72 81 83 85 88
43 40 38 37 36 34 33 33 34 34 32 32 32 32 34 36 36 39 42 42 42 43 45 48 50 51 54 58 62 64 64 62 63 62 64 62 53 68 68 76 76 80 83
42 40 39 38 35 32 31 32 33 34 32 31 33 34 36 35 36 38 39 42 42 43 45 45 48 50 52 53 61 63 64 62 63 66 68 65 62 69 70 72 73 76 67
40 40 39 38 35 31 30 31 33 33 34 34 36 38 39 38 39 40 42 46 44 45 48 48 48 52 48 52 61 65 68 65 61 64 66 64 64 69 76 72 76 66 74
40 39 38 38 36 32 31 32 34 35 33 35 37 40 38 38 39 40 42 44 47 44 48 50 52 54 47 39 61 67 71 69 63 66 58 60 60 57 60 60 73 74 81
42 40 40 38 35 33 39 61 82 40 37 36 38 38 37 39 41 41 42 43 44 43 47 50 54 57 40 51 55 61 67 64 64 67 64 62 58 57 55 55 55 59 74
46 44 40 39 46 72 85 92 38 40 43 50 42 37 38 41 43 41 42 44 44 45 48 51 56 57 55 50 53 57 60 65 66 63 61 56 43 56 56 54 57 60 59
48 47 50 64 83 91 74 55 90 88 83 48 40 40 44 46 46 46 48 49 50 50 52 54 54 58 47 53 55 58 66 66 64 60 59 57 54 56 53 58 66 65 62
49 60 63 71 89 70 93 95 95 94 85 62 43 42 45 49 48 50 52 51 54 56 58 53 60 62 60 56 56 56 66 63 63 55 55 55 57 54 54 59 71 68 68
58 52 57 75 93 96 95 94 94 91 64 45 44 45 48 48 48 50 51 52 55 50 55 56 63 61 64 58 57 55 62 73 65 62 57 56 52 54 56 65 77 82 76
60 89 96 96 95 95 94 94 92 63 47 46 47 48 47 47 46 49 51 54 60 64 72 65 70 68 64 64 55 56 55 61 62 70 70 59 57 58 60 63 70 82 72
95 96 96 95 94 92 93 91 59 45 45 47 46 46 46 42 41 52 56 63 71 75 79 78 76 65 62 56 56 57 58 60 67 70 71 72 66 71 69 67 66 63 62
94 94 95 94 93 86 56 48 46 46 47 49 49 49 51 50 50 57 63 66 75 87 83 77 75 71 58 62 62 59 58 57 56 59 62 59 60 61 66 66 61 83 77
94 94 93 92 71 45 42 47 46 48 51 55 58 64 71 68 68 62 63 79 94 95 82 84 81 82 77 72 65 58 67 76 77 73 76 74 67 64 60 66 66 67 70
92 91 82 52 49 50 50 48 45 50 56 65 74 81 68 78 81 73 90 83 84 79 83 92 93 94 91 77 68 69 66 71 70 69 91 93 81 76 81 73 69 70 71
72 50 49 50 54 52 51 49 53 58 71 81 74 88 89 92 83 91 93 68 65 63 62 61 62 66 68 65 64 66 64 68 66 77 95 93 79 76 79 71 70 70 72
Wind_Speed
4 5 7 7 11 13 15 16 16 16 11 9 7 5 7 9 9 10 15 14 13 14 13 11 7 4 6 9 10 10 10 7 8 5 1 1 3 4 4 4 4 5 6
4 5 6 6 7 10 12 14 15 15 11 8 7 6 5 7 8 9 12 15 14 14 12 12 11 10 6 7 11 11 8 8 9 7 5 4 3 4 5 4 6 9 5
3 4 5 6 7 7 9 12 14 14 13 11 7 6 6 6 8 11 10 12 14 15 14 13 11 12 9 6 7 8 9 10 5 6 4 4 4 4 4 8 8 8 5
4 4 4 4 5 5 3 6 10 12 12 13 10 13 10 8 6 6 7 9 13 14 14 14 13 12 9 11 6 7 4 9 9 3 1 3 3 4 3 5 9 9 8
4 4 4 4 4 3 3 5 6 8 11 13 12 8 10 6 5 6 9 10 10 13 15 15 14 14 10 12 13 11 8 8 3 3 3 1 2 2 2 3 4 4 5
5 5 4 5 5 4 4 6 6 7 7 8 10 10 11 9 7 8 8 7 7 9 14 13 13 13 13 13 11 11 13 11 7 9 7 2 2 3 3 1 1 2 1
5 5 4 4 4 4 4 5 7 6 6 7 8 10 9 7 8 8 7 8 7 8 11 12 13 11 12 13 12 11 10 12 12 9 7 7 7 5 3 2 1 1 0
7 7 5 3 4 4 5 6 6 6 6 6 8 7 9 6 5 5 5 6 7 8 11 10 11 11 12 11 10 9 8 10 12 13 9 6 8 8 5 4 1 1 1
7 7 6 5 4 4 5 5 6 6 6 6 5 6 6 6 6 8 6 4 6 7 8 8 9 10 11 10 9 7 8 9 9 10 9 8 7 7 7 7 5 2 0
8 8 7 5 3 4 3 4 5 6 6 6 5 5 6 6 6 5 6 8 7 7 7 8 8 8 9 10 10 9 11 9 7 6 9 7 5 5 5 5 5 5 2
9 8 8 7 7 5 3 4 4 5 5 5 5 6 5 5 5 5 6 5 6 7 8 8 8 9 9 10 9 9 9 10 9 9 9 8 7 5 3 2 3 3 3
10 9 9 8 7 6 4 4 4 5 4 5 5 5 5 6 6 6 6 6 5 5 6 7 7 7 8 9 9 9 9 10 8 8 7 7 7 7 6 5 5 3 1
10 9 9 8 7 6 6 4 4 4 4 5 5 5 6 6 6 6 7 7 7 7 6 6 6 7 7 7 8 8 8 7 7 7 7 6 7 6 6 5 4 5 4
9 8 8 7 7 7 6 5 4 4 4 4 4 5 5 6 5 5 5 5 6 6 7 7 7 6 6 4 7 8 8 7 7 6 4 4 4 4 5 5 5 5 5
7 8 8 7 8 7 6 5 4 4 3 3 4 4 3 4 4 4 4 4 3 4 4 5 5 6 6 5 7 7 8 8 7 5 5 5 8 10 7 4 3 3 3
3 8 8 8 9 9 7 8 2 2 3 3 3 4 4 5 4 5 6 5 5 4 4 4 4 5 6 14 14 12 7 7 7 6 5 4 8 6 11 11 11 8 4
4 7 8 8 8 10 9 3 4 3 5 5 4 3 5 5 5 5 5 5 6 6 6 6 5 5 5 15 14 15 7 10 10 9 6 5 5 7 5 7 11 10 14
5 6 9 10 11 9 5 6 3 1 1 3 3 3 4 5 5 5 5 6 5 5 5 6 6 6 7 17 17 17 5 7 9 10 9 6 8 7 10 7 5 6 7
8 8 10 11 8 7 5 3 1 1 2 3 3 3 4 5 5 5 5 5 5 4 5 5 6 6 6 16 17 14 5 8 9 10 7 6 6 13 17 8 5 7 8
8 8 8 9 6 4 3 1 1 2 3 4 4 4 4 4 5 5 5 4 4 5 4 6 6 10 6 15 15 12 3 5 6 8 7 13 14 19 17 8 5 7 9
8 9 6 5 4 3 2 2 2 2 3 3 4 4 5 5 5 5 4 4 5 5 5 5 5 6 8 8 15 15 6 6 7 7 6 5 17 19 20 19 9 10 14
5 5 4 4 3 3 3 3 3 4 4 4 5 5 5 5 6 5 5 5 5 5 6 6 5 4 5 13 14 18 17 15 6 6 4 6 18 20 19 16 21 24 20
5 5 3 3 2 2 2 4 4 5 5 5 5 5 5 5 6 5 5 5 5 3 4 4 4 5 6 6 16 18 18 17 11 7 14 22 21 21 15 18 23 17 6
4 3 3 3 3 2 5 4 5 5 5 5 5 5 5 6 5 4 4 3 2 2 4 5 6 6 6 6 6 7 7 13 11 14 10 14 16 18 17 13 7 5 6
4 3 2 3 4 4 4 5 5 5 5 5 5 5 4 5 5 5 2 3 4 6 7 5 5 6 7 8 16 16 10 8 11 16 7 4 5 7 6 4 5 6 6
2 3 4 4 4 5 5 5 4 5 5 4 4 4 3 3 4 3 4 11 15 17 17 19 15 8 17 22 22 23 23 23 24 11 7 4 6 7 5 6 7 7 9
Wind_Direction
62 57 32 37 20 8 355 354 349 348 351 357 353 360 39 40 34 32 29 21 16 9 356 347 317 275 240 228 217 210 214 204 198 172 176 226 208 184 176 192 203 189 192
60 42 49 22 44 16 3 355 354 351 358 10 352 10 19 46 43 33 27 21 21 11 8 3 347 335 296 279 240 227 197 208 207 189 150 183 200 226 215 199 213 212 182
120 77 56 27 18 21 13 2 357 353 4 16 36 37 44 37 32 22 23 20 18 19 11 12 6 358 353 343 275 245 187 207 206 188 160 164 206 145 192 212 207 202 197
127 101 77 61 44 9 26 4 7 11 8 13 41 54 55 46 36 25 24 22 23 24 15 16 13 15 3 352 348 5 333 209 198 126 136 65 89 175 167 215 209 208 194
150 127 105 88 70 10 67 51 7 22 23 23 28 51 55 46 35 29 30 27 20 29 22 19 17 13 14 355 359 22 23 353 121 152 130 151 90 71 118 172 188 207 200
162 130 125 111 82 33 23 69 38 21 19 34 29 37 56 46 29 31 32 22 16 19 21 12 27 9 21 6 358 10 14 27 26 56 17 56 155 173 145 102 130 173 37
178 164 150 101 67 51 34 52 50 26 38 30 36 33 20 46 38 34 24 12 20 18 16 9 15 9 18 13 359 13 4 20 34 33 37 12 32 13 35 61 139 145 29
182 170 163 143 109 68 37 50 51 41 30 42 42 35 34 28 27 26 38 38 15 20 6 19 11 2 15 19 3 24 12 5 38 26 29 38 24 15 9 14 27 73 244
187 178 167 174 128 84 54 29 47 42 50 41 53 48 29 34 28 30 22 16 26 24 7 21 24 7 19 15 359 23 30 30 31 32 27 29 28 18 11 18 357 18 269
186 171 166 159 120 111 82 49 38 45 30 36 40 55 57 29 29 36 33 25 24 17 12 10 5 25 15 20 23 11 11 22 31 30 36 23 32 24 25 30 11 14 350
186 167 163 157 155 138 121 100 64 41 39 29 40 38 33 53 42 33 21 24 25 14 17 15 11 15 21 11 20 5 20 20 28 24 15 22 15 23 16 27 39 34 16
171 165 163 147 148 159 151 116 88 73 38 29 46 45 36 29 28 22 21 15 20 23 20 15 16 17 9 15 9 12 5 10 15 10 13 21 8 6 19 15 1 351 269
156 156 146 150 158 152 134 115 91 76 49 36 28 34 31 34 29 21 9 5 3 13 14 18 16 10 359 16 5 4 1 2 3 2 2 1 358 6 15 356 350 336 333
161 147 141 150 151 136 131 129 101 82 57 42 40 31 20 13 12 12 8 3 1 7 4 4 7 3 345 35 2 358 353 347 350 351 350 342 5 355 337 329 331 357 350
147 148 150 153 134 121 109 98 82 73 50 55 40 23 6 352 355 357 351 342 359 359 346 353 355 353 338 5 355 357 346 338 337 336 345 345 329 322 306 322 308 310 317
192 152 146 137 134 137 120 78 54 46 12 40 31 8 359 349 355 344 335 336 338 343 340 342 338 340 344 335 344 348 348 338 327 318 319 312 309 319 332 313 311 306 278
328 135 125 118 99 93 94 155 118 53 30 19 336 357 352 338 336 333 328 342 340 340 338 339 339 329 332 329 334 334 341 328 320 313 303 299 315 312 276 305 313 312 309
48 91 98 99 91 90 115 83 55 77 304 301 359 355 345 333 330 331 337 337 325 331 335 330 332 337 333 328 327 325 341 313 304 301 293 302 305 302 313 312 312 306 303
57 68 81 89 101 109 89 123 196 332 314 317 321 345 341 327 324 327 327 319 329 330 319 320 333 331 311 320 319 320 316 310 309 307 295 298 297 297 297 289 286 306 300
47 73 80 86 93 92 91 105 82 320 306 13 346 333 320 316 315 320 320 304 310 300 313 317 308 308 314 309 306 310 287 296 299 306 311 321 311 305 312 314 319 305 294
67 60 74 88 83 74 43 44 3 328 32 338 323 311 305 311 303 310 306 313 311 316 309 303 305 298 293 294 307 304 294 279 279 287 293 295 301 302 305 307 305 286 283
79 86 91 91 82 55 21 355 316 35 356 343 321 310 321 330 325 311 300 304 326 318 322 316 303 305 300 312 320 311 311 304 301 287 281 269 286 290 298 302 299 300 297
70 58 68 91 100 47 306 324 2 360 353 337 317 327 333 323 308 314 325 318 325 320 314 309 306 302 306 302 309 314 313 316 313 305 294 307 311 309 313 300 294 309 323
79 61 43 33 344 47 357 349 348 351 342 319 321 321 312 305 342 319 304 308 311 287 282 287 291 290 296 296 295 287 290 292 299 295 285 286 304 310 299 307 310 311 302
40 37 348 325 7 7 342 341 347 347 339 329 312 299 334 322 297 290 267 281 267 272 286 281 275 293 295 289 294 303 302 294 289 299 300 284 287 294 296 295 306 305 299
360 356 5 360 354 342 334 330 352 1 336 312 324 318 296 295 313 305 297 310 310 311 311 310 306 294 294 303 307 307 307 308 306 305 297 307 302 298 297 305 305 304 303